Flag for U.S.A. Weather past 2 weeks in Birmingham, Alabama, U.S.A.

Now
61 °F

Low clouds.


Feels Like: 61 °F
Forecast: 48 / 57 °F
Wind: No wind

Location: Birmingham International Airport

Current Time: Dec 28, 2014 at 1:36:49 PM

Latest Report: Dec 28, 2014 at 12:53 PM


Visibility: 10 mi

Pressure: 30.05 "Hg

Humidity: 87%

Dew point: 57 °F

Location of BirminghamLocation

Historic Weather in Birmingham — Graph

°F

Birmingham temperature yesterday

Maximum temperature yesterday: 58 °F (at 12:53 PM)
Minimum temperature yesterday: 47 °F (at 7:53 AM)
Average temperature yesterday: 53 °F

Past Weeks' High & Low Weather Summary

 TemperatureHumidityPressure
High63 °F (Dec 15, 11:53 PM)97% (Dec 21, 2:53 AM)30.39 "Hg (Dec 21, 2:53 AM)
Low32 °F (Dec 14, 2:53 AM)44% (Dec 16, 1:53 PM)29.57 "Hg (Dec 24, 5:53 AM)
Average47 °F80%30.10 "Hg
* Reported Dec 13 11:53 AM — Dec 28 11:53 AM, Birmingham, Weather by CustomWeather, © 2014

Note: Actual official high and low records may vary slightly from our data, if they occured in-between our weather recording intervals... More about our weather records

Advertising

Birmingham weather history for previous 24 hours

 ConditionsComfort  
Time TempWeatherWind HumidityBarometerVisibility
11:53 AM
Dec 28
60 °FLow clouds.No wind90%30.06 "Hg3 mi
10:53 AM58 °FFog.5 mph97%30.10 "Hg3 mi
9:53 AM58 °FFog.No wind93%30.11 "Hg3 mi
8:53 AM57 °FLow clouds.3 mph96%30.11 "Hg8 mi
7:53 AM57 °FOvercast.3 mph93%30.09 "Hg10 mi
6:53 AM56 °FLight rain. Low clouds.3 mph97%30.08 "Hg7 mi
5:53 AM57 °FHeavy rain. Fog.7 mph93%30.06 "Hg3 mi
4:53 AM57 °FLight rain. Fog.6 mph93%30.06 "Hg6 mi
3:53 AM57 °FLight rain. Fog.5 mph93%30.05 "Hg5 mi
2:53 AM57 °FHeavy rain. Fog.7 mph93%30.06 "Hg5 mi
1:53 AM57 °FLight rain. Fog.3 mph96%30.07 "Hg6 mi
12:53 AM57 °FLight rain. Overcast.9 mph96%30.08 "Hg10 mi
11:53 PM
Dec 27
55 °FHeavy rain. Fog.8 mph96%30.13 "Hg3 mi
10:53 PM56 °FHeavy rain. Fog.5 mph97%30.14 "Hg1 mi
9:57 PM53 °FHeavy rain. Fog.7 mph93%30.16 "Hg2 mi
8:53 PM53 °FRain. Fog.5 mph93%30.15 "Hg4 mi
7:53 PM53 °FLight rain. Low clouds.10 mph89%30.18 "Hg9 mi
6:53 PM53 °FLow clouds.5 mph86%30.18 "Hg10 mi
5:53 PM53 °FOvercast.6 mph83%30.18 "Hg10 mi
5:02 PM53 °FMostly cloudy.10 mph83%30.20 "Hg10 mi
4:53 PM53 °FOvercast.10 mph86%30.19 "Hg10 mi
3:53 PM54 °FRain. Fog.10 mph86%30.21 "Hg3 mi
2:53 PM56 °FMostly cloudy.8 mph72%30.19 "Hg10 mi
1:53 PM57 °FMostly cloudy.5 mph62%30.18 "Hg10 mi
Weather by CustomWeather, © 2014

See weather overviewHow to use our weather pages